Location: La Bilong�re
(48.1297°N, 1.4584°W)
Time: 02:59:17
(UTC+00:00)

Cosmos 1821 Rocket - Pass Details

Date: 03 March 2021
Orbit: 945 x 1005 km, 82.9° (Epoch: 12 April)

Event Time Altitude Azimuth Distance (km) Brightness Sun altitude
Exits shadow 20:42:01 56° 40° (NE) 1,149 4.2 -28.3°
Drops below altitude 10° 20:46:56 10° 13° (NNE) 2,704 6.4 -29.1°
Sets 20:49:26 0° 12° (NNE) 3,647 7.2 -29.5°
